Location: Peterborough
(44.3091°N, 78.3197°W)
Time: 00:24:39
(UTC-04:00)

S-56A Canister/Altair - Pass Details

Date: 29 March 2023
Orbit: 639 x 2492 km, 38.9° (Epoch: 02 June)

Event Time Altitude Azimuth Distance (km) Brightness Sun altitude
Rises 19:41:21 0° 244° (WSW) 4,632 12.6 -1.7°
Reaches altitude 10° 19:44:05 10° 241° (WSW) 3,872 12.1 -2.1°
Maximum altitude 19:54:37 63° 164° (SSE) 2,293 9.8 -4.0°
Drops below altitude 10° 20:08:54 10° 89° (E) 5,115 11.1 -6.5°
Enters shadow 20:10:37 - 88° (E) 5,547 11.3 -6.8°
